TimePST,TemperatureF,Dew PointF,Humidity,Sea Level PressureIn,VisibilityMPH,Wind Direction,Wind SpeedMPH,Gust SpeedMPH,PrecipitationIn,Events,Conditions,WindDirDegrees,DateUTC
12:53 AM,39.0,33.1,79,29.95,10.0,SSE,8.1,16.1,N/A,,Overcast,160,2013-01-23 08:53:00
1:53 AM,37.9,32.0,79,29.94,10.0,WSW,4.6,-,N/A,,Overcast,250,2013-01-23 09:53:00
2:53 AM,39.0,33.1,79,29.96,10.0,SE,8.1,-,N/A,,Overcast,140,2013-01-23 10:53:00
3:53 AM,39.9,32.0,73,29.93,10.0,NNW,4.6,-,N/A,,Overcast,340,2013-01-23 11:53:00
4:53 AM,39.9,34.0,79,29.93,10.0,Calm,Calm,-,N/A,,Overcast,0,2013-01-23 12:53:00
5:53 AM,39.9,33.1,77,29.93,10.0,SE,4.6,-,N/A,,Overcast,130,2013-01-23 13:53:00
6:53 AM,39.2,33.8,81,29.89,10.0,WSW,3.5,-,N/A,,Overcast,240,2013-01-23 14:53:00
7:53 AM,41.0,34.0,76,29.89,10.0,Calm,Calm,-,N/A,,Overcast,0,2013-01-23 15:53:00
8:53 AM,39.9,35.1,83,29.89,10.0,Calm,Calm,-,N/A,,Overcast,0,2013-01-23 16:53:00
9:53 AM,41.0,37.0,86,29.90,10.0,SE,3.5,-,0.00,Rain,Light Rain,140,2013-01-23 17:53:00
10:53 AM,39.9,36.0,86,29.92,8.0,South,5.8,-,0.01,Rain,Light Rain,190,2013-01-23 18:53:00
11:53 AM,39.9,36.0,86,29.88,8.0,Calm,Calm,-,0.02,Rain,Light Rain,0,2013-01-23 19:53:00
12:53 PM,39.9,37.0,89,29.87,5.0,Calm,Calm,-,0.02,Rain,Light Rain,0,2013-01-23 20:53:00
1:09 PM,39.2,35.6,87,29.85,4.0,Variable,5.8,-,N/A,Rain,Light Rain,0,2013-01-23 21:09:00
1:53 PM,39.0,36.0,89,29.87,4.0,SSW,6.9,-,0.02,Rain,Light Rain,210,2013-01-23 21:53:00
2:30 PM,39.2,35.6,87,29.87,3.0,SSW,5.8,-,0.04,Rain,Light Rain,210,2013-01-23 22:30:00
2:53 PM,39.0,36.0,89,29.89,3.0,SSW,6.9,-,0.05,Rain,Light Rain,200,2013-01-23 22:53:00
2:56 PM,39.2,35.6,87,29.88,3.0,SSW,6.9,-,0.01,Rain,Light Rain,200,2013-01-23 22:56:00
3:53 PM,39.0,36.0,89,29.91,3.0,South,10.4,-,0.05,Rain,Light Rain,180,2013-01-23 23:53:00
4:53 PM,41.0,37.0,86,29.94,10.0,South,11.5,21.9,0.01,,Overcast,180,2013-01-24 00:53:00
5:53 PM,41.0,37.0,86,29.95,10.0,South,12.7,21.9,N/A,,Mostly Cloudy,190,2013-01-24 01:53:00
6:09 PM,41.0,37.4,87,29.95,10.0,South,15.0,21.9,N/A,,Scattered Clouds,190,2013-01-24 02:09:00
6:53 PM,41.0,37.0,86,29.99,10.0,South,13.8,21.9,N/A,,Overcast,190,2013-01-24 02:53:00
7:22 PM,41.0,37.4,87,30.00,10.0,South,11.5,-,N/A,,Overcast,180,2013-01-24 03:22:00
7:53 PM,41.0,37.0,86,30.04,10.0,South,10.4,-,N/A,,Overcast,190,2013-01-24 03:53:00
8:00 PM,41.0,37.4,87,30.03,10.0,South,10.4,-,N/A,,Overcast,190,2013-01-24 04:00:00
8:53 PM,39.9,36.0,86,30.06,10.0,South,16.1,21.9,N/A,,Overcast,190,2013-01-24 04:53:00
9:53 PM,41.0,37.0,86,30.10,10.0,South,11.5,-,N/A,,Overcast,190,2013-01-24 05:53:00
10:06 PM,41.0,37.4,87,30.10,10.0,SSW,11.5,21.9,N/A,,Overcast,200,2013-01-24 06:06:00
10:35 PM,41.0,37.4,87,30.11,10.0,South,13.8,21.9,N/A,,Mostly Cloudy,190,2013-01-24 06:35:00
10:53 PM,39.9,37.0,89,30.12,10.0,South,12.7,-,N/A,,Partly Cloudy,190,2013-01-24 06:53:00
11:53 PM,39.9,37.0,89,30.15,10.0,South,15.0,-,N/A,,Partly Cloudy,190,2013-01-24 07:53:00